FW4702 Weather Reports


Display with metric or nautical units.
time (UTC)temp
F
wind
direction
speed
MPH
gust
MPH
rain 1hr
in
rain 24hr
in
rain mn
in
humidity
%
barometer
mb
20260903202559 94 0 0.0 3.0 0.00 0.00 0.00 57 1015.9
20260903202057 94 74 0.0 4.0 0.00 0.00 0.00 60 1015.9
20260903201607 94 0 0.0 4.0 0.00 0.00 0.00 55 1016.0
20260903201057 94 53 0.0 1.0 0.00 0.00 0.00 56 1016.1
20260903200557 94 0 0.0 2.0 0.00 0.00 0.00 54 1016.0
20260903200104 94 101 0.0 2.0 0.00 0.00 0.00 56 1016.1
20260903195557 94 0 0.0 1.0 0.00 0.00 0.00 60 1016.0
20260903195057 94 0 0.0 1.0 0.00 0.00 0.00 59 1016.0
20260903194600 93 0 0.0 2.0 0.00 0.00 0.00 59 1016.2
20260903194057 93 0 0.0 2.0 0.00 0.00 0.00 58 1016.2
20260903193556 93 94 0.0 1.0 0.00 0.00 0.00 60 1016.2
20260903193106 91 0 0.0 0.0 0.00 0.00 0.00 65 1016.4
20260903192557 89 0 0.0 0.0 0.00 0.00 0.00 75 1016.4
20260903192059 88 0 0.0 0.0 0.00 0.00 0.00 74 1016.4
20260903191603 88 0 0.0 0.0 0.00 0.00 0.00 75 1016.4
20260903191057 89 0 0.0 0.0 0.00 0.00 0.00 71 1016.6
20260903190556 90 0 0.0 0.0 0.00 0.00 0.00 65 1016.6
20260903190106 91 0 0.0 1.0 0.00 0.00 0.00 64 1016.7
20260903185557 90 0 0.0 1.0 0.00 0.00 0.00 68 1016.7
20260903185057 89 0 0.0 0.0 0.00 0.00 0.00 71 1016.8
20260903184607 90 0 0.0 0.0 0.00 0.00 0.00 65 1016.9
20260903184057 91 0 0.0 2.0 0.00 0.00 0.00 62 1017.0
20260903183556 91 0 0.0 2.0 0.00 0.00 0.00 60 1016.8
20260903183106 93 94 0.0 3.0 0.00 0.00 0.00 57 1017.0
20260903182558 94 0 0.0 4.0 0.00 0.00 0.00 54 1016.8
20260903182057 95 352 1.0 4.0 0.00 0.00 0.00 53 1017.0
20260903181603 95 340 1.0 4.0 0.00 0.00 0.00 55 1017.1
20260903181059 94 9 0.0 4.0 0.00 0.00 0.00 56 1017.2
20260903180557 93 352 0.0 1.0 0.00 0.00 0.00 58 1017.3
20260903180104 93 0 0.0 1.0 0.00 0.00 0.00 56 1017.4
20260903175557 92 0 0.0 2.0 0.00 0.00 0.00 61 1017.4
20260903175058 91 0 0.0 2.0 0.00 0.00 0.00 68 1017.4
20260903174612 92 265 1.0 2.0 0.00 0.00 0.00 62 1017.4
20260903174057 92 352 0.0 2.0 0.00 0.00 0.00 59 1017.5
20260903173556 90 0 0.0 2.0 0.00 0.00 0.00 71 1017.5
20260903173112 91 0 0.0 4.0 0.00 0.00 0.00 64 1017.6
20260903172558 92 0 0.0 4.0 0.00 0.00 0.00 60 1017.6
20260903172058 93 53 0.0 4.0 0.00 0.00 0.00 58 1017.7
20260903171604 92 0 0.0 2.0 0.00 0.00 0.00 61 1017.8
20260903171057 92 165 1.0 5.0 0.00 0.00 0.00 64 1017.8
20260903170558 93 0 0.0 5.0 0.00 0.00 0.00 59 1017.9
20260903170110 93 65 1.0 5.0 0.00 0.00 0.00 61 1018.0
20260903165558 93 0 1.0 4.0 0.00 0.00 0.00 60 1018.0
20260903165057 92 66 1.0 4.0 0.00 0.00 0.00 60 1018.0
20260903164608 92 334 1.0 4.0 0.00 0.00 0.00 60 1018.2
20260903164057 91 52 1.0 4.0 0.00 0.00 0.00 63 1018.2
20260903163554 91 81 0.0 2.0 0.00 0.00 0.00 66 1018.3
20260903163114 90 0 0.0 2.0 0.00 0.00 0.00 66 1018.3
20260903162558 91 144 0.0 2.0 0.00 0.00 0.00 71 1018.3
20260903162058 91 0 0.0 4.0 0.00 0.00 0.00 66 1018.4
20260903161619 90 0 0.0 4.0 0.00 0.00 0.00 66 1018.4
20260903161057 91 51 1.0 3.0 0.00 0.00 0.00 67 1018.4
20260903160557 89 63 0.0 2.0 0.00 0.00 0.00 68 1018.3
20260903160107 88 207 0.0 3.0 0.00 0.00 0.00 71 1018.5
20260903155556 88 204 0.0 3.0 0.00 0.00 0.00 72 1018.5
20260903155100 88 204 0.0 3.0 0.00 0.00 0.00 74 1018.6
20260903154605 88 317 0.0 2.0 0.00 0.00 0.00 72 1018.6
20260903154057 88 306 0.0 3.0 0.00 0.00 0.00 72 1018.6
20260903153557 88 198 0.0 3.0 0.00 0.00 0.00 71 1018.6
20260903153105 87 0 0.0 3.0 0.00 0.00 0.00 75 1018.4
20260903152554 87 0 0.0 3.0 0.00 0.00 0.00 75 1018.4
20260903152057 87 0 0.0 3.0 0.00 0.00 0.00 76 1018.5
20260903151604 88 0 0.0 3.0 0.00 0.00 0.00 72 1018.5
20260903151101 88 24 1.0 3.0 0.00 0.00 0.00 70 1018.5
20260903150557 87 73 0.0 2.0 0.00 0.00 0.00 72 1018.5
20260903150119 87 121 0.0 2.0 0.00 0.00 0.00 73 1018.4
20260903145555 87 0 0.0 2.0 0.00 0.00 0.00 73 1018.4
20260903145052 87 65 0.0 3.0 0.00 0.00 0.00 75 1018.4
20260903144557 86 68 1.0 3.0 0.00 0.00 0.00 75 1018.4
20260903144052 86 70 0.0 2.0 0.00 0.00 0.00 77 1018.3
20260903143555 85 0 0.0 2.0 0.00 0.00 0.00 79 1018.3
20260903143105 85 88 0.0 2.0 0.00 0.00 0.00 81 1018.3
20260903142556 85 0 0.0 2.0 0.00 0.00 0.00 81 1018.4
20260903142101 85 0 0.0 2.0 0.00 0.00 0.00 80 1018.3
20260903141605 84 85 0.0 2.0 0.00 0.00 0.00 80 1018.4
20260903141058 84 0 0.0 2.0 0.00 0.00 0.00 79 1018.5
20260903140553 84 0 0.0 1.0 0.00 0.00 0.00 83 1018.5
20260903140105 83 0 0.0 1.0 0.00 0.00 0.00 84 1018.5
20260903135554 83 0 0.0 2.0 0.00 0.00 0.00 83 1018.6
20260903135053 83 0 0.0 2.0 0.00 0.00 0.00 83 1018.4
20260903134557 82 123 0.0 2.0 0.00 0.00 0.00 85 1018.5
20260903134055 82 0 0.0 2.0 0.00 0.00 0.00 86 1018.5
20260903133557 81 123 0.0 0.0 0.00 0.00 0.00 88 1018.4
20260903133106 80 0 0.0 0.0 0.00 0.00 0.00 88 1018.4
20260903132558 80 0 0.0 0.0 0.00 0.00 0.00 89 1018.4
20260903132055 80 0 0.0 0.0 0.00 0.00 0.00 90 1018.4
20260903131605 79 0 0.0 0.0 0.00 0.00 0.00 90 1018.4
20260903131054 78 0 0.0 0.0 0.00 0.00 0.00 92 1018.5
20260903130553 78 0 0.0 0.0 0.00 0.00 0.00 93 1018.6
20260903130105 77 0 0.0 0.0 0.00 0.00 0.00 94 1018.7
20260903125556 76 0 0.0 0.0 0.00 0.00 0.00 95 1018.7
20260903125052 76 0 0.0 0.0 0.00 0.00 0.00 96 1018.6
20260903124608 75 0 0.0 0.0 0.00 0.00 0.00 96 1018.6
20260903124052 75 0 0.0 0.0 0.00 0.00 0.00 97 1018.5
20260903123551 74 0 0.0 0.0 0.00 0.00 0.00 97 1018.5
20260903123103 74 0 0.0 0.0 0.00 0.00 0.00 97 1018.5
20260903122552 74 0 0.0 0.0 0.00 0.00 0.00 97 1018.4
20260903122056 74 0 0.0 0.0 0.00 0.00 0.00 97 1018.4
20260903121603 74 0 0.0 0.0 0.00 0.00 0.00 97 1018.2
20260903121053 73 0 0.0 0.0 0.00 0.00 0.00 97 1018.3
20260903120554 73 0 0.0 0.0 0.00 0.00 0.00 97 1018.2
20260903120059 73 0 0.0 0.0 0.00 0.00 0.00 97 1018.2
20260903115556 73 0 0.0 0.0 0.00 0.00 0.00 97 1018.2
20260903115058 73 0 0.0 0.0 0.00 0.00 0.00 97 1018.2
20260903114620 73 0 0.0 0.0 0.00 0.00 0.00 97 1018.2
20260903114057 73 0 0.0 0.0 0.00 0.00 0.00 97 1018.2
20260903113557 73 0 0.0 0.0 0.00 0.00 0.00 97 1018.2
20260903113106 73 0 0.0 0.0 0.00 0.00 0.00 97 1018.1
20260903112558 73 0 0.0 0.0 0.00 0.00 0.00 96 1018.1
20260903112058 73 0 0.0 0.0 0.00 0.00 0.00 96 1018.1
20260903111617 73 0 0.0 0.0 0.00 0.00 0.00 96 1018.0
20260903111058 73 0 0.0 0.0 0.00 0.00 0.00 96 1017.9
20260903110558 73 0 0.0 0.0 0.00 0.00 0.00 96 1017.9
20260903110110 73 0 0.0 0.0 0.00 0.00 0.00 96 1017.8
20260903105558 73 0 0.0 0.0 0.00 0.00 0.00 96 1017.8
20260903105058 73 0 0.0 0.0 0.00 0.00 0.00 96 1017.8
20260903104628 73 0 0.0 0.0 0.00 0.00 0.00 96 1017.8
20260903104057 73 0 0.0 0.0 0.00 0.00 0.00 96 1017.8
20260903103559 73 0 0.0 0.0 0.00 0.00 0.00 96 1017.7
20260903103122 73 0 0.0 0.0 0.00 0.00 0.00 96 1017.6
20260903102558 73 0 0.0 0.0 0.00 0.00 0.00 96 1017.6
20260903102101 73 0 0.0 0.0 0.00 0.00 0.00 96 1017.6
20260903101604 73 0 0.0 0.0 0.00 0.00 0.00 96 1017.5
20260903101057 73 0 0.0 0.0 0.00 0.00 0.00 96 1017.6
20260903100600 73 0 0.0 0.0 0.00 0.00 0.00 96 1017.5
20260903100105 73 0 0.0 0.0 0.00 0.00 0.00 96 1017.5
20260903095556 73 0 0.0 0.0 0.00 0.00 0.00 96 1017.4
20260903095056 73 0 0.0 0.0 0.00 0.00 0.00 96 1017.4
20260903094607 73 0 0.0 0.0 0.00 0.00 0.00 96 1017.4
20260903094058 73 0 0.0 0.0 0.00 0.00 0.00 96 1017.5
20260903093558 73 0 0.0 0.0 0.00 0.00 0.00 95 1017.5
20260903093128 73 0 0.0 0.0 0.00 0.00 0.00 96 1017.5
20260903092559 73 0 0.0 0.0 0.00 0.00 0.00 96 1017.4
20260903092056 73 0 0.0 0.0 0.00 0.00 0.00 96 1017.4
20260903091606 73 0 0.0 0.0 0.00 0.00 0.00 96 1017.5
20260903091057 73 0 0.0 0.0 0.00 0.00 0.00 95 1017.5
20260903090557 73 0 0.0 0.0 0.00 0.00 0.00 95 1017.4
20260903090104 73 0 0.0 0.0 0.00 0.00 0.00 95 1017.3
20260903085557 73 0 0.0 0.0 0.00 0.00 0.00 95 1017.3
20260903085056 73 0 0.0 0.0 0.00 0.00 0.00 95 1017.3
20260903084604 74 0 0.0 0.0 0.00 0.00 0.00 95 1017.2
20260903084058 74 0 0.0 0.0 0.00 0.00 0.00 95 1017.2
20260903083558 74 0 0.0 0.0 0.00 0.00 0.00 94 1017.3
20260903083121 74 0 0.0 0.0 0.00 0.00 0.00 94 1017.3
20260903082557 74 0 0.0 0.0 0.00 0.00 0.00 94 1017.3
20260903082057 74 0 0.0 0.0 0.00 0.00 0.00 94 1017.3
20260903081605 74 0 0.0 0.0 0.00 0.00 0.00 94 1017.3
20260903081057 74 0 0.0 0.0 0.00 0.00 0.00 94 1017.3
20260903080559 74 0 0.0 0.0 0.00 0.00 0.00 94 1017.3
20260903080103 74 0 0.0 0.0 0.00 0.00 0.00 94 1017.4
20260903075558 74 0 0.0 0.0 0.00 0.00 0.00 94 1017.2
20260903075102 74 0 0.0 0.0 0.00 0.00 0.00 94 1017.3
20260903074602 74 0 0.0 0.0 0.00 0.00 0.00 94 1017.3
20260903074057 74 0 0.0 0.0 0.00 0.00 0.00 94 1017.3
20260903073559 74 0 0.0 0.0 0.00 0.00 0.00 94 1017.4
20260903073107 74 0 0.0 0.0 0.00 0.00 0.00 94 1017.3
20260903072556 74 0 0.0 0.0 0.00 0.00 0.00 94 1017.3
20260903072058 74 0 0.0 0.0 0.00 0.00 0.00 94 1017.3
20260903071637 74 0 0.0 0.0 0.00 0.00 0.00 94 1017.3
20260903071057 74 0 0.0 0.0 0.00 0.00 0.00 94 1017.4
20260903070557 74 0 0.0 0.0 0.00 0.00 0.00 94 1017.4
20260903070111 74 0 0.0 0.0 0.00 0.00 0.00 93 1017.3
20260903065557 74 0 0.0 0.0 0.00 0.00 0.00 93 1017.3
20260903065056 74 0 0.0 0.0 0.00 0.00 0.00 94 1017.3
20260903064605 74 0 0.0 0.0 0.00 0.00 0.00 94 1017.3
20260903064057 74 0 0.0 0.0 0.00 0.00 0.00 94 1017.4
20260903063558 74 0 0.0 0.0 0.00 0.00 0.00 94 1017.5
20260903063106 74 0 0.0 0.0 0.00 0.00 0.00 94 1017.5
20260903062557 74 0 0.0 0.0 0.00 0.00 0.00 94 1017.5
20260903062057 74 0 0.0 0.0 0.00 0.00 0.00 94 1017.5
20260903061608 74 0 0.0 0.0 0.00 0.00 0.00 94 1017.5
20260903061057 75 0 0.0 0.0 0.00 0.00 0.00 94 1017.7
20260903060557 75 0 0.0 0.0 0.00 0.00 0.00 94 1017.6
20260903055557 75 0 0.0 0.0 0.00 0.00 0.00 94 1017.7
20260903055057 75 0 0.0 0.0 0.00 0.00 0.00 94 1017.6
20260903054600 75 0 0.0 0.0 0.00 0.00 0.00 94 1017.6
20260903054055 75 0 0.0 0.0 0.00 0.00 0.00 94 1017.6
20260903053558 75 0 0.0 0.0 0.00 0.00 0.00 94 1017.6
20260903053102 75 0 0.0 0.0 0.00 0.00 0.00 94 1017.7
20260903052552 75 0 0.0 0.0 0.00 0.00 0.00 94 1017.7
20260903052052 75 0 0.0 0.0 0.00 0.00 0.00 94 1017.7
20260903051558 75 0 0.0 0.0 0.00 0.00 0.00 94 1017.7
20260903051051 75 0 0.0 0.0 0.00 0.00 0.00 94 1017.6
20260903050552 75 0 0.0 0.0 0.00 0.00 0.00 94 1017.6
20260903050115 75 0 0.0 0.0 0.00 0.00 0.00 94 1017.6
20260903045553 75 0 0.0 0.0 0.00 0.00 0.00 94 1017.6
20260903045055 75 0 0.0 0.0 0.00 0.00 0.00 93 1017.6
20260903044604 75 0 0.0 0.0 0.00 0.00 0.00 93 1017.7
20260903044055 75 0 0.0 0.0 0.00 0.00 0.00 93 1017.7
20260903043556 75 0 0.0 0.0 0.00 0.00 0.00 93 1017.7
20260903043104 75 0 0.0 0.0 0.00 0.00 0.00 93 1017.6
20260903042555 75 0 0.0 0.0 0.00 0.00 0.00 93 1017.6
20260903042058 75 0 0.0 0.0 0.00 0.00 0.00 93 1017.5
20260903041613 75 0 0.0 0.0 0.00 0.00 0.00 93 1017.5
20260903041055 76 0 0.0 0.0 0.00 0.00 0.00 93 1017.5
20260903040555 76 0 0.0 0.0 0.00 0.00 0.00 93 1017.5
20260903040111 76 0 0.0 0.0 0.00 0.00 0.00 92 1017.5
20260903035554 75 0 0.0 0.0 0.00 0.00 0.00 93 1017.5
20260903035055 76 0 0.0 0.0 0.00 0.00 0.00 93 1017.5
20260903034609 76 0 0.0 0.0 0.00 0.00 0.00 93 1017.6
20260903034057 76 0 0.0 0.0 0.00 0.00 0.00 93 1017.7
20260903033555 76 0 0.0 0.0 0.00 0.00 0.00 93 1017.7
20260903033101 76 0 0.0 0.0 0.00 0.00 0.00 92 1017.8
20260903032554 76 0 0.0 0.0 0.00 0.00 0.00 92 1017.8
20260903032056 76 0 0.0 0.0 0.00 0.00 0.00 92 1017.7
20260903031605 76 0 0.0 0.0 0.00 0.00 0.00 92 1017.7
20260903031056 76 0 0.0 0.0 0.00 0.00 0.00 92 1017.7
20260903030559 76 0 0.0 0.0 0.00 0.00 0.00 92 1017.8
20260903030107 76 0 0.0 0.0 0.00 0.00 0.00 92 1017.8
20260903025556 77 0 0.0 0.0 0.00 0.00 0.00 91 1017.8
20260903025054 77 0 0.0 0.0 0.00 0.00 0.00 91 1017.7
20260903024602 77 0 0.0 0.0 0.00 0.00 0.00 91 1017.7
20260903024057 77 0 0.0 0.0 0.00 0.00 0.00 91 1017.7
20260903023557 77 0 0.0 0.0 0.00 0.00 0.00 91 1017.7
20260903023102 77 0 0.0 0.0 0.00 0.00 0.00 91 1017.8
20260903022558 77 0 0.0 0.0 0.00 0.00 0.00 91 1017.7
20260903022057 77 0 0.0 0.0 0.00 0.00 0.00 90 1017.7
20260903021610 77 0 0.0 0.0 0.00 0.00 0.00 90 1017.7
20260903021058 77 0 0.0 0.0 0.00 0.00 0.00 90 1017.7
20260903020557 78 0 0.0 0.0 0.00 0.00 0.00 90 1017.6
20260903020104 77 0 0.0 0.0 0.00 0.00 0.00 89 1017.7
20260903015557 78 0 0.0 0.0 0.00 0.00 0.00 90 1017.6
20260903015058 78 0 0.0 0.0 0.00 0.00 0.00 89 1017.5
20260903014626 78 0 0.0 0.0 0.00 0.00 0.00 89 1017.4
20260903014101 78 0 0.0 0.0 0.00 0.00 0.00 89 1017.5
20260903013557 78 0 0.0 0.0 0.00 0.00 0.00 89 1017.4
20260903013109 78 0 0.0 0.0 0.00 0.00 0.00 89 1017.5
20260903012556 79 0 0.0 0.0 0.00 0.00 0.00 88 1017.3
20260903012057 79 0 0.0 0.0 0.00 0.00 0.00 87 1017.3
20260903011608 79 0 0.0 0.0 0.00 0.00 0.00 87 1017.2
20260903011058 79 0 0.0 0.0 0.00 0.00 0.00 88 1017.1
20260903010557 79 0 0.0 0.0 0.00 0.00 0.00 87 1017.1
20260903010101 79 0 0.0 0.0 0.00 0.00 0.00 86 1017.0
20260903005559 79 0 0.0 0.0 0.00 0.00 0.00 88 1017.0
20260903005058 80 0 0.0 0.0 0.00 0.00 0.00 88 1017.0
20260903004602 80 0 0.0 0.0 0.00 0.00 0.00 87 1016.8
20260903004057 80 0 0.0 0.0 0.00 0.00 0.00 87 1016.8
20260903003556 81 0 0.0 0.0 0.00 0.00 0.00 85 1017.0
20260903003119 80 0 0.0 0.0 0.00 0.00 0.00 84 1017.1
20260903002557 81 0 0.0 0.0 0.00 0.00 0.00 87 1017.2
20260903002057 81 0 0.0 0.0 0.00 0.00 0.00 87 1017.2
20260903001605 81 0 0.0 0.0 0.00 0.00 0.00 86 1017.2
20260903001056 81 0 0.0 0.0 0.00 0.00 0.00 87 1017.1
20260903000557 82 0 0.0 0.0 0.00 0.00 0.00 86 1017.0
20260903000110 82 0 0.0 0.0 0.00 0.00 0.00 86 1017.0
20260902235556 83 0 0.0 0.0 0.00 0.00 0.00 86 1016.9
20260902235101 83 0 0.0 0.0 0.00 0.00 0.00 85 1016.8
20260902234606 83 0 0.0 0.0 0.00 0.00 0.00 85 1017.0
20260902234100 84 0 0.0 0.0 0.00 0.00 0.00 85 1016.9
20260902233557 84 0 0.0 0.0 0.00 0.00 0.00 84 1016.8
20260902233109 84 0 0.0 0.0 0.00 0.00 0.00 84 1017.1
20260902232557 85 0 0.0 0.0 0.00 0.00 0.00 84 1017.1
20260902232057 85 0 0.0 0.0 0.00 0.00 0.00 82 1017.1
20260902231607 86 0 0.0 0.0 0.00 0.00 0.00 80 1017.1
20260902231057 86 0 0.0 0.0 0.00 0.00 0.00 77 1017.2
20260902230600 86 0 0.0 0.0 0.00 0.00 0.00 74 1017.1
20260902230120 86 0 0.0 0.0 0.00 0.00 0.00 75 1017.2
20260902225601 87 0 0.0 0.0 0.00 0.00 0.00 75 1017.2
20260902225100 87 0 0.0 0.0 0.00 0.00 0.00 74 1017.2
20260902224616 88 0 0.0 0.0 0.00 0.00 0.00 72 1017.1
20260902224057 88 0 0.0 0.0 0.00 0.00 0.00 72 1017.2
20260902223601 88 0 0.0 1.0 0.00 0.00 0.00 69 1017.2
20260902223113 88 0 0.0 1.0 0.00 0.00 0.00 74 1017.2
20260902222557 88 0 0.0 1.0 0.00 0.00 0.00 72 1017.2
20260902222057 88 0 0.0 1.0 0.00 0.00 0.00 71 1017.2
20260902221610 89 0 0.0 1.0 0.00 0.00 0.00 71 1017.2
20260902221100 89 0 0.0 1.0 0.00 0.00 0.00 70 1017.2
20260902220559 90 0 0.0 1.0 0.00 0.00 0.00 69 1017.2
20260902220108 91 0 0.0 1.0 0.00 0.00 0.00 68 1017.3
20260902215557 91 0 0.0 1.0 0.00 0.00 0.00 66 1017.3
20260902215056 91 123 0.0 1.0 0.00 0.00 0.00 65 1017.2
20260902214620 92 0 0.0 0.0 0.00 0.00 0.00 63 1017.2
20260902214057 92 0 0.0 1.0 0.00 0.00 0.00 58 1017.4
20260902213557 93 0 0.0 3.0 0.00 0.00 0.00 55 1017.4
20260902213109 93 0 0.0 3.0 0.00 0.00 0.00 54 1017.6
20260902212557 92 0 0.0 2.0 0.00 0.00 0.00 57 1017.5
20260902212057 91 0 0.0 2.0 0.00 0.00 0.00 57 1017.5
20260902211605 90 0 0.0 2.0 0.00 0.00 0.00 66 1017.6
20260902211057 92 0 0.0 1.0 0.00 0.00 0.00 61 1017.6
20260902210600 91 0 0.0 1.0 0.00 0.00 0.00 63 1017.7
20260902210100 91 0 0.0 2.0 0.00 0.00 0.00 65 1017.7
20260902205557 91 0 0.0 2.0 0.00 0.00 0.00 60 1017.7
20260902205057 92 0 0.0 2.0 0.00 0.00 0.00 56 1017.6
20260902204610 91 0 0.0 1.0 0.00 0.00 0.00 63 1017.5
20260902204056 91 0 0.0 1.0 0.00 0.00 0.00 62 1017.6
20260902203557 90 0 0.0 1.0 0.00 0.00 0.00 68 1017.6
20260902203104 90 0 0.0 0.0 0.00 0.00 0.00 73 1017.7